N3EDS Weather Reports


Display with metric or nautical units.
time (UTC)temp
F
wind
direction
speed
MPH
gust
MPH
rain 1hr
in
rain 24hr
in
rain mn
in
humidity
%
barometer
mb
20260504230525 65 269 2.0 6.0 0.00 0.00 0.00 56 1010.0
20260504230024 65 269 2.0 6.0 0.00 0.00 0.00 56 1010.0
20260504225520 66 196 1.0 6.0 0.00 0.00 0.00 56 1010.0
20260504225017 66 133 0.0 3.0 0.00 0.00 0.00 56 1010.0
20260504224514 66 292 1.0 3.0 0.00 0.00 0.00 55 1010.2
20260504224011 66 150 0.0 1.0 0.00 0.00 0.00 56 1010.0
20260504223508 66 160 1.0 3.0 0.00 0.00 0.00 55 1010.0
20260504223004 67 232 2.0 3.0 0.00 0.00 0.00 54 1009.9
20260504222501 67 280 2.0 3.0 0.00 0.00 0.00 53 1009.9
20260504221958 67 251 3.0 3.0 0.00 0.00 0.00 52 1009.9
20260504221455 67 187 3.0 7.0 0.00 0.00 0.00 52 1009.8
20260504220952 67 205 2.0 3.0 0.00 0.00 0.00 52 1009.8
20260504220448 67 190 1.0 2.0 0.00 0.00 0.00 51 1009.7
20260504215945 67 141 3.0 4.0 0.00 0.00 0.00 53 1009.8
20260504215442 67 184 2.0 3.0 0.00 0.00 0.00 52 1009.9
20260504214939 67 237 3.0 3.0 0.00 0.00 0.00 52 1009.8
20260504214435 67 177 4.0 6.0 0.00 0.00 0.00 51 1009.9
20260504213932 67 171 3.0 4.0 0.00 0.00 0.00 52 1009.9
20260504213428 67 170 1.0 6.0 0.00 0.00 0.00 50 1009.9
20260504212926 68 117 1.0 2.0 0.00 0.00 0.00 50 1009.8
20260504212421 69 240 3.0 6.0 0.00 0.00 0.00 48 1009.8
20260504211919 68 189 2.0 3.0 0.00 0.00 0.00 49 1009.8
20260504211415 68 319 2.0 6.0 0.00 0.00 0.00 51 1009.9
20260504210912 67 198 5.0 6.0 0.00 0.00 0.00 51 1010.0
20260504210409 69 197 4.0 4.0 0.00 0.00 0.00 51 1009.9
20260504205907 69 237 1.0 4.0 0.00 0.00 0.00 49 1009.9
20260504205404 68 260 4.0 9.0 0.00 0.00 0.00 51 1009.6
20260504204902 68 296 2.0 6.0 0.00 0.00 0.00 51 1009.7
20260504204400 70 141 2.0 6.0 0.00 0.00 0.00 51 1010.0
20260504203900 69 136 1.0 3.0 0.00 0.00 0.00 51 1009.7
20260504203356 68 158 1.0 3.0 0.00 0.00 0.00 52 1009.6
20260504202852 69 164 2.0 4.0 0.00 0.00 0.00 51 1009.9
20260504202349 71 246 2.0 2.0 0.00 0.00 0.00 50 1009.7
20260504201845 71 187 1.0 2.0 0.00 0.00 0.00 47 1009.9
20260504201343 69 235 4.0 9.0 0.00 0.00 0.00 51 1009.7
20260504200840 69 215 2.0 6.0 0.00 0.00 0.00 50 1010.0
20260504200337 68 281 3.0 4.0 0.00 0.00 0.00 52 1010.0
20260504195833 67 198 4.0 6.0 0.00 0.00 0.00 51 1010.0
20260504195329 68 184 3.0 8.0 0.00 0.00 0.00 52 1009.8
20260504194826 68 221 2.0 6.0 0.00 0.00 0.00 52 1010.2
20260504194322 66 175 4.0 4.0 0.00 0.00 0.00 52 1009.9
20260504193818 67 172 1.0 3.0 0.00 0.00 0.00 53 1010.5
20260504193316 68 88 2.0 3.0 0.00 0.00 0.00 51 1009.9
20260504192814 69 179 2.0 4.0 0.00 0.00 0.00 50 1010.2
20260504192312 69 148 2.0 4.0 0.00 0.00 0.00 49 1010.0
20260504191810 69 111 1.0 6.0 0.00 0.00 0.00 51 1010.5
20260504191307 68 8 3.0 6.0 0.00 0.00 0.00 52 1010.1
20260504190803 67 193 3.0 4.0 0.00 0.00 0.00 50 1010.5
20260504190259 67 116 2.0 4.0 0.00 0.00 0.00 52 1010.6
20260504185755 67 231 8.0 13.0 0.00 0.00 0.00 51 1010.4
20260504185253 69 227 4.0 7.0 0.00 0.00 0.00 49 1010.7
20260504184749 68 314 2.0 6.0 0.00 0.00 0.00 49 1010.7
20260504184244 67 277 4.0 9.0 0.00 0.00 0.00 51 1010.8
20260504183740 69 150 1.0 3.0 0.00 0.00 0.00 49 1010.6
20260504183237 69 162 2.0 4.0 0.00 0.00 0.00 53 1010.9
20260504182736 67 242 3.0 6.0 0.00 0.00 0.00 51 1010.9
20260504182233 65 195 3.0 6.0 0.00 0.00 0.00 51 1011.2
20260504181730 65 243 2.0 3.0 0.00 0.00 0.00 52 1011.3
20260504181227 65 205 2.0 6.0 0.00 0.00 0.00 52 1011.4
20260504180726 65 209 2.0 8.0 0.00 0.00 0.00 53 1011.2
20260504180225 65 272 4.0 6.0 0.00 0.00 0.00 51 1011.2
20260504175722 66 168 3.0 7.0 0.00 0.00 0.00 49 1011.1
20260504175218 66 197 5.0 8.0 0.00 0.00 0.00 50 1011.1
20260504174716 65 176 2.0 7.0 0.00 0.00 0.00 52 1011.2
20260504174214 66 138 2.0 6.0 0.00 0.00 0.00 50 1011.3
20260504173710 67 193 4.0 7.0 0.00 0.00 0.00 48 1011.3
20260504173208 66 189 4.0 4.0 0.00 0.00 0.00 48 1011.4
20260504172704 66 185 3.0 4.0 0.00 0.00 0.00 48 1011.3
20260504172200 65 182 2.0 3.0 0.00 0.00 0.00 50 1011.4
20260504171657 66 244 2.0 3.0 0.00 0.00 0.00 49 1011.5
20260504171154 66 144 4.0 6.0 0.00 0.00 0.00 48 1011.7
20260504170650 66 135 4.0 6.0 0.00 0.00 0.00 47 1011.6
20260504170148 66 224 2.0 4.0 0.00 0.00 0.00 50 1011.8
20260504160107 64 206 3.0 6.0 0.00 0.00 0.00 47 1012.5
20260504151028 62 174 2.0 4.0 0.00 0.00 0.00 47 1012.8
20260504150525 63 63 2.0 2.0 0.00 0.00 0.00 47 1013.0
20260504140951 59 292 0.0 7.0 0.00 0.00 0.00 54 1012.8
20260504140447 59 254 1.0 3.0 0.00 0.00 0.00 53 1012.9
20260504130412 53 193 3.0 3.0 0.00 0.00 0.00 60 1013.4